Flag for Germany Weather past 2 weeks in Zweibrücken, Rhineland-Palatinate, Germany

Now
61 °F

Sunny.


Feels Like: 61 °F
Forecast: 42 / 70 °F
Wind: 3 mph from North

Location: Saarbruecken / Ensheim

Current Time: May 22, 2015 at 8:25:41 PM

Latest Report: May 22, 2015 at 7:50 PM


Visibility: 10 mi

Pressure: 30.18 "Hg

Humidity: 48%

Dew point: 41 °F

Location of ZweibrückenLocation

Historic Weather in Zweibrücken — Graph

°F

Zweibrücken temperature yesterday

Maximum temperature yesterday: 61 °F (at 4:50 PM)
Minimum temperature yesterday: 37 °F (at 4:20 AM)
Average temperature yesterday: 50 °F

Past Weeks' High & Low Weather Summary

 TemperatureHumidityPressure
High79 °F (May 12, 3:50 PM)100% (May 15, 2:50 AM)30.36 "Hg (May 15, 2:50 AM)
Low37 °F (May 21, 4:20 AM)34% (May 11, 2:50 PM)29.74 "Hg (May 18, 6:20 PM)
Average57 °F66%30.09 "Hg
* Reported May 7 7:20 PM — May 22 7:20 PM, Zweibrücken, Weather by CustomWeather, © 2015

Note: Actual official high and low records may vary slightly from our data, if they occured in-between our weather recording intervals... More about our weather records

Advertising

Zweibrücken weather history for previous 24 hours

 ConditionsComfort  
Time TempWeatherWind HumidityBarometerVisibility
7:20 PM
Fri, May 22
63 °FPassing clouds.3 mph42%30.18 "HgN/A
6:50 PM63 °FPassing clouds.7 mph42%30.18 "HgN/A
6:20 PM63 °FPassing clouds.5 mph39%30.18 "HgN/A
5:50 PM64 °FSunny.7 mph40%30.21 "Hg10 mi
5:20 PM63 °FPassing clouds.3 mph42%30.21 "HgN/A
4:50 PM63 °FPassing clouds.8 mph42%30.21 "HgN/A
4:20 PM63 °FPassing clouds.5 mph42%30.21 "HgN/A
3:50 PM63 °FPassing clouds.6 mph42%30.24 "HgN/A
3:20 PM61 °FPassing clouds.7 mph48%30.24 "HgN/A
2:50 PM61 °FPassing clouds.6 mph52%30.24 "HgN/A
2:20 PM59 °FPassing clouds.7 mph55%30.27 "HgN/A
1:50 PM59 °FPassing clouds.5 mph55%30.27 "HgN/A
1:20 PM59 °FSunny.7 mph48%30.27 "Hg10 mi
12:50 PM61 °FSunny.5 mph42%30.27 "Hg10 mi
12:20 PM63 °FSunny.5 mph39%30.30 "Hg10 mi
11:50 AM61 °FPassing clouds.3 mph48%30.30 "HgN/A
11:20 AM61 °FPassing clouds.6 mph42%30.30 "HgN/A
10:50 AM59 °FPassing clouds.6 mph45%30.30 "HgN/A
10:20 AM57 °FPassing clouds.6 mph51%30.30 "HgN/A
9:50 AM57 °FPassing clouds.6 mph55%30.33 "HgN/A
9:20 AM55 °FPassing clouds.5 mph63%30.33 "HgN/A
8:50 AM52 °FSunny.2 mph67%30.33 "Hg10 mi
8:20 AM48 °FSunny.No wind82%30.33 "Hg10 mi
7:50 AM48 °FSunny.No wind76%30.30 "Hg10 mi
7:20 AM46 °FSunny.No wind76%30.30 "Hg10 mi
6:50 AM45 °FSunny.2 mph76%30.30 "Hg10 mi
6:20 AM43 °FClear.2 mph81%30.30 "Hg10 mi
5:50 AM43 °FClear.No wind76%30.30 "Hg10 mi
5:20 AM45 °FClear.1 mph76%30.30 "Hg10 mi
4:50 AM45 °FClear.2 mph76%30.30 "Hg10 mi
4:20 AM45 °FClear.No wind71%30.30 "Hg10 mi
3:50 AM45 °FClear.2 mph76%30.33 "Hg10 mi
3:20 AM45 °FClear.3 mph76%30.33 "Hg10 mi
2:50 AM45 °FClear.2 mph76%30.33 "Hg10 mi
2:20 AM45 °FClear.No wind71%30.33 "Hg10 mi
1:50 AM45 °FClear.No wind71%30.33 "Hg10 mi
1:20 AM45 °FClear.No wind71%30.33 "Hg10 mi
12:50 AM43 °FClear.No wind81%30.33 "Hg10 mi
12:20 AM45 °FClear.No wind66%30.33 "Hg10 mi
11:20 PM
Thu, May 21
46 °FClear.No wind62%30.33 "Hg10 mi
10:50 PM46 °FClear.2 mph66%30.33 "Hg10 mi
10:20 PM48 °FClear.5 mph58%30.33 "Hg10 mi
9:50 PM50 °FSunny.2 mph54%30.30 "Hg10 mi
9:20 PM52 °FSunny.3 mph50%30.30 "Hg10 mi
8:50 PM57 °FSunny.2 mph39%30.30 "Hg10 mi
8:20 PM57 °FSunny.6 mph41%30.30 "Hg10 mi
Weather by CustomWeather, © 2015

See weather overviewHow to use our weather pages